Flag for Canada Weather past 2 weeks in Stonewall, Manitoba, Canada

Now
70 °F

Passing clouds.


Feels Like: 70 °F
Forecast: 68 / 87 °F
Wind: 14 mph from South

Location: Winnipeg Int. Airportman.

Current Time: Sep 3, 2015 at 5:53:20 AM

Latest Report: Sep 3, 2015 at 5:00 AM


Visibility: 15 mi

Pressure: 29.76 "Hg

Humidity: 88%

Dew point: 66 °F

Location of StonewallLocation

Historic Weather in Stonewall — Graph

°F

Stonewall temperature yesterday

Maximum temperature yesterday: 90 °F (at 4:00 PM)
Minimum temperature yesterday: 64 °F (at 4:00 AM)
Average temperature yesterday: 76 °F

Past Weeks' High & Low Weather Summary

 TemperatureHumidityPressure
High90 °F (Aug 30, 4:00 PM)100% (Aug 22, 6:00 AM)30.22 "Hg (Aug 22, 6:00 AM)
Low37 °F (Aug 25, 6:00 AM)29% (Sep 1, 4:00 PM)29.38 "Hg (Aug 22, 9:00 PM)
Average66 °F73%29.82 "Hg
* Reported Aug 19 4:00 AM — Sep 3 4:00 AM, Stonewall, Weather by CustomWeather, © 2015

Note: Actual official high and low records may vary slightly from our data, if they occured in-between our weather recording intervals... More about our weather records

Advertising

Stonewall weather history for previous 24 hours

 ConditionsComfort  
Time TempWeatherWind HumidityBarometerVisibility
4:00 AM
Thu, Sep 3
70 °FClear.17 mph88%29.76 "Hg15 mi
3:00 AM72 °FClear.13 mph83%29.77 "Hg15 mi
2:00 AM73 °FClear.14 mph78%29.78 "Hg15 mi
1:00 AM75 °FClear.15 mph74%29.76 "Hg15 mi
12:00 AM75 °FClear.14 mph74%29.77 "Hg15 mi
11:00 PM
Wed, Sep 2
77 °FPassing clouds.16 mph69%29.77 "Hg15 mi
10:00 PM79 °FPassing clouds.16 mph65%29.77 "Hg15 mi
9:00 PM79 °FPassing clouds.12 mph70%29.77 "Hg15 mi
8:00 PM81 °FPassing clouds.12 mph66%29.76 "Hg15 mi
7:00 PM84 °FPassing clouds.12 mph58%29.76 "Hg15 mi
6:00 PM88 °FPassing clouds.16 mph52%29.75 "Hg15 mi
5:00 PM90 °FSunny.18 mph49%29.76 "Hg15 mi
4:00 PM90 °FPassing clouds.20 mph52%29.76 "Hg12 mi
3:00 PM88 °FPassing clouds.16 mph55%29.77 "Hg12 mi
2:00 PM88 °FPassing clouds.16 mph55%29.78 "Hg12 mi
1:00 PM86 °FPassing clouds.16 mph59%29.78 "Hg12 mi
12:00 PM82 °FPassing clouds.14 mph66%29.78 "Hg12 mi
11:00 AM79 °FSunny.12 mph74%29.79 "Hg12 mi
10:00 AM75 °FSunny.12 mph78%29.79 "Hg12 mi
9:00 AM70 °FSunny.16 mph88%29.80 "Hg12 mi
8:00 AM68 °FSunny.12 mph88%29.81 "Hg12 mi
7:00 AM64 °FClear.12 mph88%29.80 "Hg12 mi
6:00 AM64 °FClear.9 mph83%29.80 "Hg15 mi
5:00 AM66 °FClear.12 mph73%29.80 "Hg15 mi
Weather by CustomWeather, © 2015

See weather overviewHow to use our weather pages